Orbital Elements at Epoch 2459200.5 (2020-Dec-17.0) TDB
Reference: JPL 25 (heliocentric ecliptic J2000)
Element | Value | Uncertainty (1-sigma) | Units |
e | .2104918520585504 | 1.1689e-08 | |
a | 2.296843167182417 | 5.8734e-09 | au |
q | 1.813376395034164 | 2.6147e-08 | au |
i | 6.311225299185043 | 7.9237e-07 | deg |
node | 203.7342836955532 | 1.5557e-05 | deg |
peri | 181.6581783897377 | 1.4432e-05 | deg |
M | 216.864395541663 | 6.5664e-06 | deg |
tp | 2459706.022645484131 (2022-May-06.52264548) | 2.4098e-05 | TDB |
period | 1271.43873855131 3.48 | 4.8769e-06 1.335e-08 | d yr |
n | .2831438032242023 | 1.0861e-09 | deg/d |
Q | 2.780309939330671 | 7.1097e-09 | au |
|
| | Orbit Determination Parameters
Additional Information
|